TimeEST,TemperatureF,Dew PointF,Humidity,Sea Level PressureIn,VisibilityMPH,Wind Direction,Wind SpeedMPH,Gust SpeedMPH,PrecipitationIn,Events,Conditions,WindDirDegrees,DateUTC
12:15 AM,26.6,23.0,86,30.37,10.0,Calm,Calm,-,N/A,,Clear,0,2013-02-07 05:15:00
12:35 AM,23.0,21.2,93,30.38,10.0,SW,3.5,-,N/A,,Clear,230,2013-02-07 05:35:00
12:55 AM,23.0,21.2,93,30.39,10.0,NW,3.5,-,N/A,,Clear,310,2013-02-07 05:55:00
1:15 AM,23.0,21.2,93,30.40,10.0,Calm,Calm,-,N/A,,Clear,0,2013-02-07 06:15:00
1:35 AM,24.8,23.0,93,30.40,10.0,SE,4.6,-,N/A,,Clear,140,2013-02-07 06:35:00
1:55 AM,23.0,23.0,100,30.42,10.0,Calm,Calm,-,N/A,,Clear,0,2013-02-07 06:55:00
2:15 AM,21.2,21.2,100,30.43,10.0,Calm,Calm,-,N/A,,Clear,0,2013-02-07 07:15:00
2:35 AM,23.0,23.0,100,30.43,10.0,Calm,Calm,-,N/A,,Clear,0,2013-02-07 07:35:00
2:55 AM,21.2,21.2,100,30.42,7.0,Calm,Calm,-,N/A,,Clear,0,2013-02-07 07:55:00
3:15 AM,23.0,23.0,100,30.42,10.0,Calm,Calm,-,N/A,,Clear,0,2013-02-07 08:15:00
3:35 AM,23.0,23.0,100,30.41,7.0,Calm,Calm,-,N/A,,Clear,0,2013-02-07 08:35:00
3:55 AM,23.0,23.0,100,30.40,7.0,Calm,Calm,-,N/A,,Clear,0,2013-02-07 08:55:00
4:15 AM,23.0,23.0,100,30.40,7.0,Calm,Calm,-,N/A,,Clear,0,2013-02-07 09:15:00
4:35 AM,23.0,23.0,100,30.40,7.0,Calm,Calm,-,N/A,,Clear,0,2013-02-07 09:35:00
4:55 AM,23.0,23.0,100,30.41,10.0,Calm,Calm,-,N/A,,Clear,0,2013-02-07 09:55:00
5:15 AM,24.8,24.8,100,30.43,7.0,Calm,Calm,-,N/A,,Clear,0,2013-02-07 10:15:00
5:35 AM,24.8,24.8,100,30.43,10.0,Calm,Calm,-,N/A,,Clear,0,2013-02-07 10:35:00
5:45 AM,24.8,24.8,100,30.43,10.0,Calm,Calm,-,N/A,,Clear,0,2013-02-07 10:45:00
6:50 AM,24.8,24.8,100,-9999,-9999.0,Calm,Calm,-,N/A,,Clear,0,2013-02-07 11:50:00
7:55 AM,26.6,26.6,100,30.46,10.0,Calm,Calm,-,N/A,,Clear,0,2013-02-07 12:55:00
8:55 AM,28.4,26.6,93,30.48,10.0,Calm,Calm,-,N/A,,Overcast,0,2013-02-07 13:55:00
9:45 AM,30.2,26.6,86,30.46,7.0,Calm,Calm,-,N/A,,Overcast,0,2013-02-07 14:45:00
10:50 AM,32.0,26.6,80,30.46,10.0,North,3.5,-,N/A,,Overcast,10,2013-02-07 15:50:00
11:50 AM,33.8,26.6,75,30.44,10.0,Calm,Calm,-,N/A,,Scattered Clouds,0,2013-02-07 16:50:00
12:45 PM,35.6,24.8,65,30.40,10.0,SE,5.8,-,N/A,,Scattered Clouds,140,2013-02-07 17:45:00
2:59 PM,37.4,26.6,65,30.34,10.0,ESE,8.1,-,N/A,,Overcast,120,2013-02-07 19:59:00
3:50 PM,37.4,26.6,65,30.33,10.0,SE,8.1,-,N/A,,Mostly Cloudy,130,2013-02-07 20:50:00
4:47 PM,35.6,24.8,65,30.32,10.0,ESE,6.9,-,N/A,,Mostly Cloudy,110,2013-02-07 21:47:00
5:45 PM,35.6,24.8,65,30.33,10.0,SE,5.8,-,N/A,,Overcast,130,2013-02-07 22:45:00
6:45 PM,35.6,24.8,65,30.34,10.0,Variable,4.6,-,N/A,,Overcast,0,2013-02-07 23:45:00
7:45 PM,35.6,24.8,65,30.33,10.0,Variable,3.5,-,N/A,,Overcast,0,2013-02-08 00:45:00
8:00 PM,33.8,26.6,75,30.33,10.0,East,6.9,-,N/A,,Overcast,90,2013-02-08 01:00:00
8:20 PM,33.8,26.6,75,30.32,10.0,East,4.6,-,N/A,,Overcast,90,2013-02-08 01:20:00
8:40 PM,33.8,26.6,75,30.32,10.0,ENE,3.5,-,N/A,,Overcast,70,2013-02-08 01:40:00
9:00 PM,33.8,26.6,75,30.31,10.0,ENE,5.8,-,N/A,,Overcast,60,2013-02-08 02:00:00
9:20 PM,33.8,28.4,81,30.30,10.0,ENE,4.6,-,N/A,,Overcast,70,2013-02-08 02:20:00
9:40 PM,33.8,28.4,81,30.29,10.0,East,5.8,-,N/A,,Overcast,90,2013-02-08 02:40:00
10:00 PM,33.8,28.4,81,30.29,10.0,NE,3.5,-,N/A,,Overcast,40,2013-02-08 03:00:00
10:20 PM,33.8,30.2,87,30.28,10.0,ENE,4.6,-,N/A,,Overcast,70,2013-02-08 03:20:00
10:40 PM,33.8,30.2,87,30.27,10.0,NE,4.6,-,N/A,,Overcast,50,2013-02-08 03:40:00
11:00 PM,33.8,30.2,87,30.26,10.0,NE,4.6,-,N/A,,Overcast,50,2013-02-08 04:00:00
11:20 PM,33.8,30.2,87,30.25,10.0,ENE,5.8,-,N/A,,Overcast,60,2013-02-08 04:20:00
11:40 PM,33.8,30.2,87,30.26,10.0,NE,4.6,-,N/A,,Overcast,50,2013-02-08 04:40:00